TimeCDT,TemperatureF,Dew PointF,Humidity,Sea Level PressureIn,VisibilityMPH,Wind Direction,Wind SpeedMPH,Gust SpeedMPH,PrecipitationIn,Events,Conditions,WindDirDegrees,DateUTC
12:15 AM,27.3,25.2,92,30.17,10.0,South,4.6,-,N/A,,Clear,190,2012-10-08 05:15:00
12:35 AM,26.6,24.4,92,30.17,10.0,South,4.6,-,N/A,,Clear,190,2012-10-08 05:35:00
12:55 AM,28.2,25.5,90,30.17,10.0,South,4.6,-,N/A,,Clear,190,2012-10-08 05:55:00
1:15 AM,27.9,24.8,88,30.17,10.0,SSW,5.8,-,N/A,,Clear,200,2012-10-08 06:15:00
1:35 AM,28.8,25.2,86,30.18,10.0,SSW,3.5,-,N/A,,Clear,210,2012-10-08 06:35:00
1:55 AM,29.8,25.7,85,30.18,10.0,SSW,3.5,-,N/A,,Clear,210,2012-10-08 06:55:00
2:15 AM,30.7,25.9,82,30.18,10.0,SSW,3.5,-,N/A,,Clear,200,2012-10-08 07:15:00
2:35 AM,29.3,25.0,84,30.18,10.0,Calm,Calm,-,N/A,,Clear,0,2012-10-08 07:35:00
2:55 AM,29.3,25.2,85,30.17,10.0,South,4.6,-,N/A,,Clear,190,2012-10-08 07:55:00
3:15 AM,27.0,23.4,86,30.17,10.0,South,5.8,-,N/A,,Clear,180,2012-10-08 08:15:00
3:35 AM,25.0,22.6,91,30.17,10.0,South,4.6,-,N/A,,Clear,180,2012-10-08 08:35:00
3:55 AM,27.1,24.6,90,30.17,10.0,South,3.5,-,N/A,,Clear,190,2012-10-08 08:55:00
4:15 AM,28.9,25.3,86,30.17,10.0,South,3.5,-,N/A,,Clear,180,2012-10-08 09:15:00
4:35 AM,29.1,25.3,86,30.17,10.0,South,3.5,-,N/A,,Clear,170,2012-10-08 09:35:00
4:55 AM,28.0,24.8,88,30.17,10.0,South,3.5,-,N/A,,Clear,170,2012-10-08 09:55:00
5:15 AM,27.3,24.3,88,30.17,10.0,South,3.5,-,N/A,,Clear,180,2012-10-08 10:15:00
5:35 AM,28.2,24.6,86,30.17,10.0,South,3.5,-,N/A,,Clear,190,2012-10-08 10:35:00
6:15 AM,27.1,23.7,87,30.18,10.0,South,4.6,-,N/A,,Clear,190,2012-10-08 11:15:00
6:35 AM,28.4,24.4,85,30.18,10.0,South,3.5,-,N/A,,Clear,180,2012-10-08 11:35:00
6:55 AM,28.6,24.8,86,30.19,10.0,South,3.5,-,N/A,,Clear,190,2012-10-08 11:55:00
7:15 AM,27.7,24.3,87,30.19,10.0,South,3.5,-,N/A,,Clear,180,2012-10-08 12:15:00
7:35 AM,27.0,23.9,88,30.19,10.0,South,3.5,-,N/A,,Clear,170,2012-10-08 12:35:00
7:55 AM,30.0,27.0,88,30.20,10.0,South,3.5,-,N/A,,Clear,180,2012-10-08 12:55:00
8:15 AM,32.5,29.1,87,30.20,10.0,Calm,Calm,-,N/A,,Clear,0,2012-10-08 13:15:00
8:35 AM,35.2,30.7,84,30.20,10.0,SSW,3.5,-,N/A,,Clear,200,2012-10-08 13:35:00
8:55 AM,38.5,31.6,76,30.20,10.0,SW,5.8,-,N/A,,Clear,220,2012-10-08 13:55:00
9:15 AM,41.5,31.1,66,30.20,10.0,SSW,8.1,-,N/A,,Clear,200,2012-10-08 14:15:00
9:35 AM,43.7,30.9,61,30.20,10.0,SSW,8.1,-,N/A,,Clear,200,2012-10-08 14:35:00
9:55 AM,45.9,30.2,54,30.20,10.0,SSW,10.4,-,N/A,,Clear,210,2012-10-08 14:55:00
10:15 AM,47.7,27.9,46,30.20,10.0,SSW,10.4,-,N/A,,Clear,210,2012-10-08 15:15:00
10:35 AM,49.3,27.0,42,30.20,10.0,South,11.5,-,N/A,,Clear,190,2012-10-08 15:35:00
10:55 AM,50.0,25.0,38,30.19,10.0,SSW,13.8,17.3,N/A,,Clear,210,2012-10-08 15:55:00
11:15 AM,51.1,24.8,36,30.19,10.0,South,12.7,16.1,N/A,,Clear,190,2012-10-08 16:15:00
11:35 AM,52.0,25.2,35,30.18,10.0,South,10.4,-,N/A,,Clear,190,2012-10-08 16:35:00
11:55 AM,52.5,24.4,34,30.18,10.0,SSW,12.7,16.1,N/A,,Clear,210,2012-10-08 16:55:00
12:15 PM,53.6,24.6,33,30.18,10.0,SSW,10.4,18.4,N/A,,Clear,210,2012-10-08 17:15:00
12:35 PM,53.6,24.3,32,30.16,10.0,South,12.7,18.4,N/A,,Clear,190,2012-10-08 17:35:00
12:55 PM,54.3,24.3,31,30.15,10.0,SSW,10.4,21.9,N/A,,Clear,200,2012-10-08 17:55:00
1:15 PM,55.0,24.1,30,30.14,10.0,SW,10.4,16.1,N/A,,Clear,220,2012-10-08 18:15:00
1:35 PM,55.9,24.3,29,30.13,10.0,South,11.5,20.7,N/A,,Clear,180,2012-10-08 18:35:00
1:55 PM,55.6,23.7,29,30.11,10.0,SSW,11.5,21.9,N/A,,Clear,210,2012-10-08 18:55:00
2:15 PM,56.1,24.1,29,30.11,10.0,SSW,13.8,19.6,N/A,,Clear,200,2012-10-08 19:15:00
2:35 PM,56.3,23.7,28,30.10,10.0,South,11.5,18.4,N/A,,Clear,190,2012-10-08 19:35:00
3:15 PM,57.0,23.5,27,30.09,10.0,SW,12.7,16.1,N/A,,Clear,230,2012-10-08 20:15:00
3:35 PM,57.0,23.0,27,30.09,10.0,SSW,13.8,20.7,N/A,,Clear,200,2012-10-08 20:35:00
3:55 PM,56.8,23.4,27,30.08,10.0,SSW,12.7,25.3,N/A,,Clear,200,2012-10-08 20:55:00
4:15 PM,56.5,24.3,29,30.08,10.0,SSW,17.3,21.9,N/A,,Clear,210,2012-10-08 21:15:00
4:35 PM,56.5,24.8,30,30.08,10.0,SSW,11.5,-,N/A,,Clear,210,2012-10-08 21:35:00
4:55 PM,56.1,24.8,30,30.07,10.0,SSW,11.5,-,N/A,,Clear,200,2012-10-08 21:55:00
5:15 PM,55.4,25.3,31,30.07,10.0,SSW,10.4,-,N/A,,Clear,210,2012-10-08 22:15:00
5:35 PM,54.7,25.7,33,30.06,10.0,South,10.4,-,N/A,,Clear,190,2012-10-08 22:35:00
5:55 PM,53.8,25.7,34,30.06,10.0,South,11.5,16.1,N/A,,Clear,190,2012-10-08 22:55:00
6:15 PM,52.0,26.4,37,30.07,10.0,South,9.2,-,N/A,,Clear,190,2012-10-08 23:15:00
6:35 PM,49.8,27.1,41,30.07,10.0,South,6.9,-,N/A,,Clear,180,2012-10-08 23:35:00
6:55 PM,47.8,27.7,46,30.07,10.0,South,6.9,-,N/A,,Clear,170,2012-10-08 23:55:00
7:15 PM,46.0,27.9,49,30.07,10.0,South,6.9,-,N/A,,Clear,170,2012-10-09 00:15:00
7:35 PM,44.2,28.0,53,30.08,10.0,South,6.9,-,N/A,,Clear,170,2012-10-09 00:35:00
8:15 PM,43.3,28.0,55,30.08,10.0,South,6.9,-,N/A,,Clear,180,2012-10-09 01:15:00
8:35 PM,43.0,27.9,55,30.08,10.0,South,6.9,-,N/A,,Clear,170,2012-10-09 01:35:00
8:55 PM,42.8,28.0,56,30.09,10.0,South,6.9,-,N/A,,Clear,180,2012-10-09 01:55:00
9:15 PM,42.8,28.0,56,30.09,10.0,South,8.1,-,N/A,,Clear,170,2012-10-09 02:15:00
9:35 PM,43.2,28.0,55,30.09,10.0,South,8.1,-,N/A,,Clear,170,2012-10-09 02:35:00
9:55 PM,43.2,28.0,55,30.09,10.0,South,8.1,-,N/A,,Clear,170,2012-10-09 02:55:00
10:15 PM,43.0,27.9,55,30.09,10.0,South,8.1,-,N/A,,Clear,180,2012-10-09 03:15:00
10:35 PM,42.8,27.9,56,30.09,10.0,South,9.2,-,N/A,,Clear,180,2012-10-09 03:35:00
10:55 PM,42.8,27.7,55,30.08,10.0,South,9.2,-,N/A,,Clear,180,2012-10-09 03:55:00
11:15 PM,43.0,27.7,55,30.08,10.0,South,9.2,-,N/A,,Clear,170,2012-10-09 04:15:00
11:35 PM,43.0,27.9,55,30.08,10.0,South,11.5,-,N/A,,Clear,170,2012-10-09 04:35:00
11:55 PM,42.8,28.0,56,30.07,10.0,South,9.2,-,N/A,,Clear,180,2012-10-09 04:55:00